Погода в Оськином

Россия / Ульяновская область     53°50′16″N   46°17′10″E
темп.,
°C
ветер,
м/с
пор.,
м/с
влажн.,
%
обл.,
%
осадки,
мм/ч
давл.,
гПа
погр.,
м
6 марта, сб
сб601:00−10зюз479526 0.0 1012121
04:00−12з369736 0.0 101487
07:00−14з239747 0.0 101533
10:00−10зсз139328 0.0 1016155
13:00−6сз127988 0.0 1016514
16:00−5з237594 0.0 1015746
19:00−10з228870 0.0 101421
22:00−12зсз128880 0.0 101421
7 марта, вс
вс701:00−12зсз129096 0.0 101321
04:00−14зюз229786 0.0 101321
07:00−15зюз239872 0.0 101328
10:00−11зюз489566 0.0 1013273
13:00−7юз6108270 0.0 1010922
16:00−6ююз7128379 0.0 1007852
19:00−7ююз91692100 0.4 10031006
22:00−5юз101792100 1.8 9991167
8 марта, пн
пн801:00−4юз91793100 1.1 9971085
04:00−10зюз5128383 1.4 999234
07:00−12юз514810 0.0 1000298
10:00−8юз7128322 0.0 1000494
13:00−5зюз9148852 0.1 9991233
16:00−6з9147677 0.8 9991253
19:00−9зюз5129157 0.0 1002408
22:00−10з5128962 0.1 1005341
9 марта, вт
вт901:00−12зюз499546 0.1 1006260
04:00−13з499570 0.1 1008223
07:00−15зсз369699 0.1 1010142
10:00−14зсз3694100 0.1 1011322
13:00−10зсз4689100 0.0 1012633
16:00−10зсз4687100 0.1 1013720
19:00−13зсз3695100 0.1 1014133
22:00−17сз2398100 0.1 101639
10 марта, ср
ср1001:00−20сз2310095 0.0 101726
04:00−22зсз2310095 0.1 101830
07:00−24сз33100100 0.0 101955
10:00−21сз4697100 0.1 1020308
13:00−18сз4690100 0.0 1021616
16:00−17сз5788100 0.1 1021707
19:00−22сз3796100 0.0 1023133
22:00−26сз339864 0.0 102538